When you browse on this site, cookies collect data to enhance your experience and personalize the content and advertising you see.
Visit our Privacy Policy to learn more. By continuing to use the site, you agree to this use of cookies and data.
  • In Hungary
  • List of Countries
  • For 7 days
  • Water Temperature
  • Satellite Maps
  • Weather Map
  • News
  • Weather Widgets
  • user-avatar
    Login

    Hourly Weather Bulawayo

    Today, 18 January, Friday

    Time Temperature Precipitation Wind Pressure Humidity
    00:00 +20°C° 0 mm 0 mps 648 mmHg 74%
    01:00 +20°C° 0 mm 0 mps 647 mmHg 75%
    02:00 +19°C° 0 mm 0 mps 647 mmHg 77%
    03:00 +19°C° 0 mm 0 mps 647 mmHg 78%
    04:00 +19°C° 0 mm 0 mps 647 mmHg 80%
    05:00 +18°C° 0 mm 0 mps 646 mmHg 81%
    06:00 +22°C° 0 mm 1 mps 647 mmHg 75%
    07:00 +24°C° 0 mm 1 mps 648 mmHg 70%
    08:00 +26°C° 0 mm 1 mps 649 mmHg 64%
    09:00 +28°C° 0 mm 1 mps 649 mmHg 56%
    10:00 +30°C° 0 mm 1 mps 650 mmHg 48%
    11:00 +32°C° 0 mm 1 mps 650 mmHg 41%
    12:00 +34°C° 0 mm 2 mps 650 mmHg 36%
    13:00 +35°C° 0 mm 3 mps 649 mmHg 31%
    14:00 +35°C° 0 mm 4 mps 649 mmHg 26%
    15:00 +35°C° 0 mm 4 mps 648 mmHg 27%
    16:00 +34°C° 0 mm 3 mps 648 mmHg 29%
    17:00 +34°C° 0 mm 3 mps 647 mmHg 30%
    18:00 +31°C° 0 mm 3 mps 647 mmHg 35%
    19:00 +29°C° 0 mm 3 mps 646 mmHg 41%
    20:00 +27°C° 0 mm 2 mps 646 mmHg 46%
    21:00 +26°C° 0 mm 2 mps 647 mmHg 50%
    22:00 +25°C° 0 mm 1 mps 647 mmHg 53%
    23:00 +24°C° 0 mm 1 mps 647 mmHg 57%

    Tomorrow, 19 January, Saturday

    Time Temperature Precipitation Wind Pressure Humidity
    00:00 +24°C° 0 mm 1 mps 647 mmHg 59%
    01:00 +24°C° 0 mm 2 mps 647 mmHg 61%
    02:00 +23°C° 0 mm 2 mps 647 mmHg 63%
    03:00 +23°C° 0 mm 2 mps 646 mmHg 67%
    04:00 +22°C° 0 mm 1 mps 646 mmHg 70%
    05:00 +21°C° 0 mm 1 mps 645 mmHg 73%
    06:00 +23°C° 0 mm 1 mps 646 mmHg 67%
    07:00 +25°C° 0 mm 1 mps 647 mmHg 61%
    08:00 +27°C° 0 mm 1 mps 648 mmHg 55%
    09:00 +29°C° 0 mm 1 mps 649 mmHg 47%
    10:00 +32°C° 0 mm 1 mps 649 mmHg 40%
    11:00 +34°C° 0 mm 1 mps 650 mmHg 32%
    12:00 +33°C° 0 mm 1 mps 649 mmHg 35%
    13:00 +32°C° 0 mm 1 mps 648 mmHg 38%
    14:00 +31°C° 0 mm 1 mps 647 mmHg 41%
    15:00 +30°C° 0 mm 2 mps 647 mmHg 43%
    16:00 +30°C° 0 mm 2 mps 647 mmHg 45%
    17:00 +30°C° 0 mm 2 mps 647 mmHg 47%
    18:00 +28°C° 0.1 mm 2 mps 647 mmHg 51%
    19:00 +27°C° 0.1 mm 1 mps 647 mmHg 55%
    20:00 +26°C° 0.1 mm 1 mps 647 mmHg 59%
    21:00 +25°C° 0.2 mm 3 mps 648 mmHg 64%
    22:00 +23°C° 0.2 mm 5 mps 649 mmHg 69%
    23:00 +23°C° 0.2 mm 7 mps 649 mmHg 74%

    Day after tomorrow, 20 January, Sunday

    Time Temperature Precipitation Wind Pressure Humidity
    00:00 +22°C° 0.1 mm 7 mps 649 mmHg 76%
    01:00 +22°C° 0.1 mm 6 mps 649 mmHg 79%
    02:00 +21°C° 0.1 mm 6 mps 649 mmHg 82%
    03:00 +20°C° 0 mm 7 mps 649 mmHg 82%
    04:00 +20°C° 0 mm 7 mps 649 mmHg 82%
    05:00 +18°C° 0 mm 7 mps 649 mmHg 82%
    06:00 +18°C° 0 mm 7 mps 650 mmHg 81%
    07:00 +18°C° 0 mm 7 mps 651 mmHg 80%
    08:00 +18°C° 0 mm 7 mps 651 mmHg 79%
    09:00 +20°C° 0 mm 7 mps 652 mmHg 73%
    10:00 +21°C° 0 mm 7 mps 652 mmHg 66%
    11:00 +22°C° 0 mm 7 mps 653 mmHg 60%
    12:00 +23°C° 0 mm 7 mps 652 mmHg 56%
    13:00 +24°C° 0 mm 6 mps 652 mmHg 53%
    14:00 +27°C° 0 mm 6 mps 652 mmHg 49%
    15:00 +26°C° 0 mm 6 mps 652 mmHg 51%
    16:00 +24°C° 0 mm 6 mps 651 mmHg 53%
    17:00 +23°C° 0 mm 6 mps 651 mmHg 56%
    18:00 +22°C° 0 mm 6 mps 651 mmHg 61%
    19:00 +20°C° 0 mm 6 mps 651 mmHg 67%
    20:00 +19°C° 0 mm 5 mps 651 mmHg 72%
    21:00 +17°C° 0 mm 5 mps 651 mmHg 75%
    22:00 +16°C° 0 mm 6 mps 652 mmHg 77%
    23:00 +16°C° 0 mm 6 mps 652 mmHg 79%

    21 January, Monday

    Time Temperature Precipitation Wind Pressure Humidity
    00:00 +15°C° 0 mm 6 mps 651 mmHg 80%
    01:00 +15°C° 0 mm 5 mps 651 mmHg 82%
    02:00 +14°C° 0 mm 5 mps 651 mmHg 83%
    03:00 +14°C° 0 mm 6 mps 651 mmHg 81%
    04:00 +14°C° 0 mm 6 mps 651 mmHg 80%
    05:00 +14°C° 0 mm 6 mps 651 mmHg 78%
    06:00 +14°C° 0 mm 7 mps 651 mmHg 74%
    07:00 +15°C° 0 mm 7 mps 652 mmHg 69%
    08:00 +15°C° 0 mm 7 mps 652 mmHg 65%
    09:00 +17°C° 0 mm 6 mps 652 mmHg 60%
    10:00 +20°C° 0 mm 6 mps 653 mmHg 55%
    11:00 +21°C° 0 mm 5 mps 653 mmHg 50%
    12:00 +23°C° 0 mm 5 mps 652 mmHg 47%
    13:00 +25°C° 0 mm 5 mps 652 mmHg 44%
    14:00 +26°C° 0 mm 5 mps 651 mmHg 41%
    15:00 +26°C° 0 mm 5 mps 651 mmHg 40%
    16:00 +26°C° 0 mm 4 mps 650 mmHg 40%
    17:00 +26°C° 0 mm 4 mps 650 mmHg 39%
    18:00 +23°C° 0 mm 4 mps 650 mmHg 43%
    19:00 +21°C° 0 mm 3 mps 650 mmHg 47%
    20:00 +20°C° 0 mm 3 mps 650 mmHg 52%
    21:00 +19°C° 0 mm 3 mps 650 mmHg 53%
    22:00 +18°C° 0 mm 2 mps 650 mmHg 55%
    23:00 +17°C° 0 mm 2 mps 650 mmHg 57%

    22 January, Tuesday

    Time Temperature Precipitation Wind Pressure Humidity
    00:00 +17°C° 0 mm 2 mps 649 mmHg 61%
    01:00 +16°C° 0 mm 2 mps 649 mmHg 65%
    02:00 +16°C° 0 mm 2 mps 648 mmHg 68%
    03:00 +15°C° 0 mm 2 mps 648 mmHg 72%
    04:00 +15°C° 0 mm 2 mps 648 mmHg 75%
    05:00 +14°C° 0 mm 2 mps 648 mmHg 79%
    06:00 +16°C° 0 mm 3 mps 648 mmHg 68%
    07:00 +18°C° 0 mm 3 mps 649 mmHg 58%
    08:00 +20°C° 0 mm 4 mps 650 mmHg 47%
    09:00 +22°C° 0 mm 4 mps 650 mmHg 40%
    10:00 +25°C° 0 mm 4 mps 651 mmHg 32%
    11:00 +27°C° 0 mm 4 mps 651 mmHg 24%
    12:00 +28°C° 0 mm 4 mps 651 mmHg 21%
    13:00 +30°C° 0 mm 4 mps 650 mmHg 19%
    14:00 +32°C° 0 mm 4 mps 650 mmHg 16%
    15:00 +30°C° 0 mm 4 mps 649 mmHg 17%
    16:00 +29°C° 0 mm 4 mps 649 mmHg 18%
    17:00 +29°C° 0 mm 4 mps 649 mmHg 19%
    18:00 +26°C° 0 mm 4 mps 648 mmHg 23%
    19:00 +24°C° 0 mm 3 mps 648 mmHg 26%
    20:00 +21°C° 0 mm 3 mps 648 mmHg 29%
    21:00 +20°C° 0 mm 2 mps 648 mmHg 31%
    22:00 +20°C° 0 mm 2 mps 648 mmHg 33%
    23:00 +19°C° 0 mm 2 mps 648 mmHg 35%

    23 January, Wednesday

    Time Temperature Precipitation Wind Pressure Humidity
    00:00 +18°C° 0 mm 2 mps 647 mmHg 42%
    01:00 +18°C° 0 mm 2 mps 647 mmHg 49%
    02:00 +17°C° 0 mm 2 mps 647 mmHg 56%
    03:00 +17°C° 0 mm 2 mps 647 mmHg 59%
    04:00 +17°C° 0 mm 2 mps 647 mmHg 63%
    05:00 +17°C° 0 mm 2 mps 647 mmHg 66%
    06:00 +18°C° 0 mm 3 mps 648 mmHg 68%
    07:00 +20°C° 0 mm 5 mps 648 mmHg 69%
    08:00 +22°C° 0 mm 6 mps 649 mmHg 70%
    09:00 +21°C° 0 mm 5 mps 649 mmHg 72%
    10:00 +21°C° 0 mm 5 mps 649 mmHg 74%
    11:00 +21°C° 0 mm 5 mps 649 mmHg 75%
    12:00 +22°C° 0.1 mm 4 mps 648 mmHg 75%
    13:00 +22°C° 0.1 mm 4 mps 648 mmHg 74%
    14:00 +22°C° 0.1 mm 4 mps 647 mmHg 74%
    15:00 +23°C° 0 mm 5 mps 647 mmHg 72%
    16:00 +23°C° 0 mm 5 mps 647 mmHg 69%
    17:00 +24°C° 0 mm 6 mps 647 mmHg 67%
    18:00 +23°C° 0 mm 5 mps 647 mmHg 72%
    19:00 +21°C° 0 mm 5 mps 647 mmHg 77%
    20:00 +20°C° 0 mm 5 mps 647 mmHg 82%
    21:00 +20°C° 0 mm 4 mps 647 mmHg 83%
    22:00 +20°C° 0 mm 4 mps 648 mmHg 84%
    23:00 +20°C° 0 mm 4 mps 648 mmHg 85%
    Show more